sat.trackr.live / text

‹ back to catalog

STARLINK-32152

NORAD 60275 · 2024-131W

PAYLOAD ACTIVE UNKNOWN

§ Identity

Operator
Country
US
Launch date
2024-07-27
Launch site
AFETR
Launch vehicle
Mass (kg)
RCS (m²)

Purposes: comms

External: N2YO · Heavens-Above · Gunter

§ Orbital elements

Epoch: 2026-05-25T01:18:46.086048Z

Period
94.11 min
Inclination
53.1605°
Eccentricity
0.0001108
Mean motion
15.30192180 rev/d
Perigee alt
474.5 km
Apogee alt
476.0 km
Semi-major
6,853.4 km
B*
9.6774e-6
RAAN
57.4926°
Arg perigee
94.4420°
Mean anomaly
265.6707°
Rev number
10,331

§ Raw data

STARLINK-321521 60275U 24131W   26145.05470007 -.00000072  00000+0  96774-5 0  99992 60275  53.1605  57.4926 0001108  94.4420 265.6707 15.30192180103319

JSON: /api/v1/satellites/60275 · /tle

For live sub-satellite position, see the globe view (requires WebGL).

§ Visibility from observer

Set your observer location to see the next 7 days of passes ≥ 10°. The values pass through the URL so the page stays shareable.

No JS? Fill the form by hand. The geolocation button needs JavaScript.